1518361201.05,41842,11.94,72066.3,-5.21,-6.97,-6.97,0,*5D
1518361202.3,41843,11.94,72068.5,-5.21,-6.97,-6.97,0,*5C
1518361203.55,41844,11.88,72066.0,-5.21,-6.97,-6.93,0,*5F
1518361204.8,41845,11.94,72070.0,-5.21,-6.97,-6.97,0,*5A
1518361206.05,41846,11.94,72068.0,-5.25,-7.01,-7.01,0,*5D
1518361207.3,41847,11.94,72068.3,-5.25,-7.01,-6.93,0,*56
1518361208.53,41848,11.94,72068.5,-5.25,-6.93,-6.85,0,*54
1518361209.75,41849,11.94,72068.8,-5.27,-6.85,-6.85,0,*50
1518361210.98,41850,11.94,72068.8,-5.25,-6.93,-6.85,0,*5D
1518361212.17,41851,11.94,72070.3,-5.25,-6.85,-6.85,0,*5B
1518361213.4,41852,11.94,72072.0,-5.25,-6.85,-6.93,0,*5F
1518361214.6,41853,11.94,72064.3,-5.25,-6.85,-6.85,0,*59
1518361215.87,41854,11.88,72066.8,-5.27,-6.93,-6.93,0,*5C
1518361217.08,41855,11.94,72066.8,-5.25,-6.85,-6.81,0,*5B
1518361218.28,41856,11.94,72068.5,-5.25,-6.85,-6.81,0,*58
1518361219.53,41857,11.94,72068.3,-5.27,-6.93,-6.85,0,*58
1518361220.76,41858,11.94,72068.0,-5.25,-6.93,-6.85,0,*55
1518361222.04,41859,11.94,72066.5,-5.27,-6.97,-6.97,0,*51
1518361223.29,41860,11.94,72070.8,-5.25,-6.97,-6.97,0,*59
1518361224.54,41861,11.94,72070.0,-5.27,-6.97,-6.85,0,*59
1518361225.77,41862,11.94,72068.0,-5.25,-6.93,-6.85,0,*5C
1518361226.96,41863,11.94,72068.5,-5.25,-6.85,-6.85,0,*5A
1518361228.19,41864,11.94,72070.0,-5.25,-6.93,-6.85,0,*5A
1518361229.42,41865,11.94,72070.8,-5.25,-6.93,-6.85,0,*5B
1518361230.69,41866,11.94,72064.8,-5.27,-6.93,-6.93,0,*5D
1518361231.95,41867,11.94,72068.0,-5.25,-6.97,-6.97,0,*5E
1518361233.22,41868,11.94,72066.5,-5.27,-6.97,-6.93,0,*57
1518361234.45,41869,11.94,72066.3,-5.25,-6.97,-6.85,0,*53
1518361235.65,41870,11.94,72064.8,-5.25,-6.85,-6.85,0,*58
1518361236.87,41871,11.94,72064.8,-5.25,-6.93,-6.85,0,*5E
1518361238.1,41872,11.94,72064.5,-5.27,-6.85,-6.85,0,*58
1518361239.32,41873,11.94,72066.5,-5.27,-6.85,-6.85,0,*59
1518361240.54,41874,11.94,72066.0,-5.27,-6.85,-6.85,0,*5E
1518361241.79,41875,11.94,72070.3,-5.27,-6.93,-6.85,0,*58
1518361243.07,41876,11.94,72066.0,-5.27,-6.93,-6.93,0,*5C
1518361244.29,41877,11.88,72066.5,-5.25,-6.93,-6.85,0,*58
1518361245.51,41878,11.94,72068.3,-5.27,-6.85,-6.85,0,*52
1518361246.71,41879,11.88,72064.8,-5.25,-6.85,-6.85,0,*51
1518361247.94,41880,11.94,72068.0,-5.27,-6.85,-6.81,0,*51
1518361249.17,41881,11.94,72068.3,-5.27,-6.85,-6.81,0,*50
1518361250.4,41882,11.94,72068.5,-5.27,-6.85,-6.81,0,*53
1518361251.63,41883,11.94,72070.0,-5.27,-6.85,-6.81,0,*52
1518361252.86,41884,11.94,72066.8,-5.27,-6.85,-6.81,0,*55
1518361254.06,41885,11.88,72066.0,-5.25,-6.85,-6.81,0,*56
1518361255.29,41886,11.94,72068.8,-5.27,-6.85,-6.81,0,*57
1518361256.52,41887,11.94,72070.5,-5.27,-6.85,-6.81,0,*56
1518361257.75,41888,11.94,72068.3,-5.27,-6.85,-6.81,0,*59
1518361258.96,41889,11.94,72068.0,-5.25,-6.81,-6.81,0,*5E
1518361260.16,41890,11.94,72068.5,-5.25,-6.81,-6.81,0,*56
1518361261.4,41891,11.94,72068.0,-5.27,-6.81,-6.81,0,*55
1518361262.63,41892,11.94,72068.5,-5.27,-6.81,-6.81,0,*56
1518361263.86,41893,11.94,72070.5,-5.27,-6.81,-6.81,0,*57
1518361265.09,41894,11.94,72068.5,-5.27,-6.81,-6.81,0,*50
1518361266.3,41895,11.94,72068.8,-5.29,-6.89,-6.85,0,*53
1518361267.5,41896,11.94,72070.0,-5.25,-6.85,-6.85,0,*50
1518361268.72,41897,11.94,72068.0,-5.27,-6.85,-6.85,0,*53
1518361269.94,41898,11.94,72072.3,-5.27,-6.85,-6.85,0,*5C
1518361271.16,41899,11.94,72068.3,-5.27,-6.85,-6.85,0,*5D
1518361272.38,41900,11.88,72068.3,-5.27,-6.85,-6.85,0,*5C
1518361273.63,41901,11.94,72070.3,-5.27,-7.11,-6.97,0,*52
1518361274.85,41902,11.94,72070.8,-5.29,-9.57,-9.19,0,*5A
1518361276.09,41903,11.94,72068.8,-5.31,-12.89,-11.23,0,*5B
1518361277.33,41904,11.94,72070.8,-5.29,-12.53,-11.19,0,*5B
1518361278.56,41905,11.94,72072.3,-5.31,-10.85,-9.19,0,*63
1518361279.82,41906,11.94,72070.3,-5.31,-10.67,-8.93,0,*6F
1518361281.08,41907,11.94,72070.3,-5.31,-10.71,-9.01,0,*63
1518361282.34,41908,11.94,72070.8,-5.33,-39.85,-37.39,0,*58
1518361283.56,41909,11.94,72068.5,-5.33,-41.11,-38.73,0,*5A
1518361284.79,41910,11.94,72070.3,-5.35,-40.47,-38.23,0,*53
1518361286.03,41911,11.94,72068.0,-5.41,-40.73,-38.43,0,*50
1518361287.27,41912,11.94,72068.5,-5.41,-40.91,-38.55,0,*58
1518361288.5,41913,11.94,72070.8,-5.45,-41.17,-38.73,0,*56
1518361289.79,41914,11.94,72072.0,-5.45,-41.23,-38.91,0,*5A
1518361291.04,41915,11.94,72068.8,-5.49,-41.35,-38.97,0,*56
1518361292.25,41916,11.88,72068.3,-5.51,-41.49,-39.09,0,*51
1518361293.51,41917,11.94,72072.8,-5.53,-41.73,-39.23,0,*53
1518361294.74,41918,11.94,72074.8,-5.53,-41.41,-38.97,0,*53
1518361296.0,41919,11.94,72074.8,-5.57,-41.17,-38.79,0,*55
1518361297.23,41920,11.94,72070.5,-5.57,-41.17,-38.85,0,*5C
1518361298.49,41921,11.94,72072.8,-5.61,-41.23,-38.73,0,*56
1518361299.74,41922,11.94,72074.8,-5.65,-41.29,-38.91,0,*57
1518361300.95,41923,11.94,72072.0,-5.67,-40.91,-38.35,0,*58
1518361302.2,41924,11.94,72070.0,-5.67,-40.79,-38.23,0,*5E
1518361303.4,41925,11.94,72072.5,-5.67,-41.11,-38.73,0,*55
1518361304.66,41926,11.94,72070.5,-5.69,-40.97,-38.61,0,*54
1518361305.9,41927,11.94,72070.8,-5.71,-41.23,-38.85,0,*58
1518361307.15,41928,11.94,72074.8,-5.73,-41.73,-39.29,0,*57
1518361308.38,41929,11.94,72072.0,-5.75,-41.61,-39.29,0,*53
1518361309.61,41930,11.94,72072.3,-5.75,-41.41,-39.03,0,*51
1518361310.84,41931,11.94,72068.8,-5.77,-41.49,-39.09,0,*50
1518361312.05,41932,11.88,72068.3,-5.79,-41.29,-39.09,0,*5B
1518361313.31,41933,11.94,72070.0,-5.79,-41.55,-39.15,0,*5C
1518361314.58,41934,11.94,72070.5,-5.85,-41.55,-39.23,0,*5D
1518361315.81,41935,11.94,72068.8,-5.83,-41.35,-38.97,0,*52
1518361317.07,41936,11.94,72072.3,-5.85,-41.41,-39.15,0,*5F
1518361318.35,41937,11.94,72074.3,-5.89,-41.67,-40.21,0,*5F
1518361319.64,41938,11.94,72068.5,-5.89,-41.81,-40.21,0,*58
1518361320.9,41939,11.94,72070.8,-5.89,-41.87,-40.29,0,*57
1518361322.11,41940,11.94,72070.0,-5.91,-41.87,-40.15,0,*5F
1518361323.35,41941,11.94,72066.5,-5.95,-41.81,-40.15,0,*5C
1518361324.58,41942,11.94,72064.8,-5.95,-41.61,-39.97,0,*55
1518361325.82,41943,11.94,72068.0,-5.97,-41.55,-40.15,0,*55
1518361327.02,41944,11.94,72064.5,-5.95,-41.73,-40.03,0,*53
1518361328.25,41945,11.94,72066.0,-5.97,-41.61,-39.97,0,*50
1518361329.48,41946,11.94,72066.5,-5.99,-41.41,-39.91,0,*59
1518361330.71,41947,11.94,72066.8,-6.01,-41.29,-39.71,0,*5A
1518361331.93,41948,11.94,72068.5,-6.01,-41.29,-39.71,0,*55
1518361333.16,41949,11.94,72066.5,-6.07,-41.41,-39.85,0,*57
1518361334.42,41950,11.88,72066.0,-6.07,-41.55,-40.03,0,*5A
1518361335.67,41951,11.94,72064.8,-6.07,-41.55,-40.03,0,*5B
1518361336.96,41952,11.94,72066.0,-6.07,-41.35,-39.79,0,*5D
1518361338.25,41953,11.94,72066.5,-6.07,-41.35,-39.79,0,*5C
1518361339.48,41954,11.94,72066.3,-6.11,-41.41,-39.85,0,*5C
1518361340.71,41955,11.94,72066.3,-6.11,-41.41,-39.85,0,*5D
1518361341.94,41956,11.94,72064.5,-6.11,-41.49,-39.85,0,*56
1518361343.18,41957,11.94,72066.3,-6.11,-41.49,-39.91,0,*52
1518361344.41,41958,11.94,72066.5,-6.13,-41.41,-39.71,0,*59
1518361345.61,41959,11.94,72068.3,-6.13,-41.29,-39.85,0,*5D
1518361346.82,41960,11.94,72066.5,-6.13,-41.49,-39.85,0,*51
1518361348.08,41961,11.94,72066.3,-6.17,-41.67,-40.29,0,*50
1518361349.31,41962,11.94,72066.8,-6.19,-41.73,-40.03,0,*50
1518361350.52,41963,11.94,72064.5,-6.17,-41.49,-39.91,0,*53
1518361351.75,41964,11.94,72066.0,-6.17,-41.29,-39.79,0,*54
1518361353.04,41965,11.88,72066.0,-6.19,-41.23,-39.79,0,*51
1518361354.3,41966,11.94,72066.5,-6.19,-41.17,-39.79,0,*55
1518361355.56,41967,11.94,72064.0,-6.19,-41.03,-39.53,0,*59
1518361356.79,41968,11.94,72062.3,-6.21,-41.03,-39.53,0,*5D
1518361358.06,41969,11.94,72066.5,-6.23,-41.23,-39.65,0,*59
1518361359.29,41970,11.94,72070.8,-6.23,-41.11,-39.65,0,*50
1518361360.55,41971,11.94,72066.3,-6.23,-41.23,-39.65,0,*50
1518361361.8,41972,11.94,72066.3,-6.23,-41.03,-39.65,0,*51
1518361363.03,41973,11.94,72070.5,-6.23,-41.03,-39.47,0,*50
1518361364.28,41974,11.94,72068.0,-6.23,-40.85,-39.47,0,*58
1518361365.52,41975,11.94,72064.5,-6.25,-41.23,-39.65,0,*52
1518361366.76,41976,11.94,72066.0,-6.29,-41.29,-39.97,0,*5A
1518361368.01,41977,11.94,72066.8,-6.29,-41.49,-39.97,0,*5D
1518361369.26,41978,11.94,72068.3,-6.29,-41.17,-39.71,0,*51
1518361370.49,41979,11.88,72068.5,-6.29,-41.29,-39.91,0,*53
1518361371.77,41980,11.94,72070.3,-6.29,-41.55,-40.09,0,*51
1518361373.05,41981,11.94,72070.0,-6.33,-41.81,-40.41,0,*5E
1518361374.34,41982,11.94,72068.5,-6.33,-41.93,-40.41,0,*5E
1518361375.62,41983,11.94,72070.3,-6.33,-41.93,-40.21,0,*59
1518361376.85,41984,11.88,72070.5,-6.33,-41.61,-40.15,0,*54
1518361378.14,41985,11.88,72070.3,-6.37,-41.67,-40.09,0,*5A
1518361379.35,41986,11.94,72070.3,-6.35,-41.61,-40.15,0,*50
1518361380.61,41987,11.94,72072.8,-6.39,-41.67,-40.21,0,*5C
1518361381.84,41988,11.94,72068.8,-6.39,-41.73,-40.29,0,*5E
1518361383.12,41989,11.94,72074.8,-6.41,-41.93,-40.29,0,*5E
1518361384.35,41990,11.94,72070.5,-6.39,-41.73,-40.29,0,*57
1518361385.64,41991,11.94,72068.8,-6.41,-41.67,-40.09,0,*5E
1518361386.86,41992,11.88,72070.3,-6.43,-41.73,-40.21,0,*50
1518361388.09,41993,11.88,72070.5,-6.43,-41.73,-40.21,0,*51
1518361389.35,41994,11.94,72072.0,-6.45,-41.81,-40.35,0,*58
1518361390.58,41995,11.94,72070.8,-6.43,-41.81,-40.35,0,*5F
1518361391.83,41996,11.94,72072.5,-6.43,-41.55,-40.09,0,*5A
1518361393.1,41997,11.94,72074.8,-6.47,-41.55,-40.21,0,*55
1518361394.32,41998,11.94,72074.0,-6.47,-41.73,-40.21,0,*5E
1518361395.56,41999,11.94,72074.5,-6.47,-41.81,-40.35,0,*57
1518361396.8,42000,11.94,72072.0,-6.51,-41.87,-40.41,0,*5F
1518361398.0,42001,11.94,72072.3,-6.51,-41.49,-40.15,0,*5D
1518361399.27,42002,11.94,72072.8,-6.51,-41.67,-40.41,0,*53
1518361400.52,42003,11.94,72074.3,-6.53,-41.93,-40.47,0,*5D
1518361401.76,42004,11.94,72068.8,-6.53,-41.87,-40.53,0,*5A
1518361403.02,42005,11.94,72070.0,-6.55,-41.55,-40.09,0,*5D
1518361404.29,42006,11.94,72072.0,-6.55,-41.55,-40.29,0,*5C
1518361405.49,42007,11.94,72072.3,-6.55,-41.73,-40.35,0,*54
1518361406.73,42008,11.94,72072.0,-6.55,-41.93,-40.47,0,*50
1518361407.99,42009,11.94,72070.5,-6.57,-41.81,-40.53,0,*55
1518361409.21,42010,11.94,72070.8,-6.59,-41.61,-40.35,0,*5D
1518361410.44,42011,11.88,72070.8,-6.59,-41.55,-40.15,0,*59
1518361411.68,42012,11.88,72070.5,-6.59,-41.61,-40.29,0,*52
1518361412.91,42013,11.94,72070.8,-6.59,-41.29,-40.09,0,*5D
1518361414.2,42014,11.94,72074.0,-6.63,-41.23,-39.97,0,*50
1518361415.43,42015,11.88,72070.0,-6.61,-41.23,-40.03,0,*50
1518361416.69,42016,11.94,72072.3,-6.61,-41.55,-40.21,0,*52
1518361417.97,42017,11.88,72070.8,-6.63,-41.81,-40.41,0,*5E
1518361419.24,42018,11.94,72072.5,-6.63,-41.87,-40.59,0,*5E
1518361420.47,42019,11.94,72070.5,-6.63,-41.99,-40.65,0,*5F
1518361421.7,42020,11.94,72068.0,-6.65,-42.05,-40.73,0,*52
1518361422.91,42021,11.94,72068.0,-6.65,-41.87,-40.65,0,*5D
1518361424.13,42022,11.94,72070.8,-6.65,-41.87,-40.53,0,*5B
1518361425.36,42023,11.94,72074.0,-6.67,-41.03,-39.47,0,*5F
1518361426.62,42024,11.94,72070.8,-6.69,-41.93,-39.29,0,*57
1518361427.88,42025,11.94,72068.0,-6.69,-41.81,-39.15,0,*5A
1518361429.14,42026,11.94,72068.8,-6.69,-41.93,-39.15,0,*5A
1518361430.35,42027,11.94,72068.5,-6.73,-41.73,-38.97,0,*55
1518361431.61,42028,11.94,72070.3,-6.73,-41.67,-38.79,0,*5F
1518361432.85,42029,11.88,72068.5,-6.73,-41.73,-38.91,0,*5D
1518361434.08,42030,11.94,72070.8,-6.75,-41.73,-38.97,0,*55
1518361435.35,42031,11.94,72070.0,-6.75,-41.87,-39.15,0,*54
1518361436.57,42032,11.94,72070.3,-6.77,-41.73,-39.03,0,*59
1518361437.78,42033,11.94,72070.0,-6.77,-41.61,-38.97,0,*57
1518361439.01,42034,11.94,72068.3,-6.77,-41.73,-39.03,0,*5F
1518361440.24,42035,11.88,72066.3,-6.77,-41.99,-39.15,0,*5D
1518361441.48,42036,11.88,72068.8,-6.77,-41.81,-38.85,0,*5F
1518361442.74,42037,11.94,72070.5,-6.79,-41.87,-39.03,0,*59
1518361444.0,42038,11.94,72070.0,-6.79,-41.87,-39.03,0,*56
1518361445.24,42039,11.94,72064.8,-6.81,-41.81,-39.09,0,*5C
1518361446.49,42040,11.94,72066.8,-6.81,-41.81,-39.03,0,*58
1518361447.73,42041,11.94,72064.3,-6.81,-41.81,-39.09,0,*53
1518361448.94,42042,11.94,72064.3,-6.81,-41.87,-39.09,0,*56
1518361450.2,42043,11.88,72066.0,-6.81,-41.93,-39.23,0,*5A
1518361451.4,42044,11.94,72064.0,-6.85,-41.99,-39.35,0,*54
1518361452.65,42045,11.88,72066.0,-6.85,-42.05,-39.15,0,*51
1518361453.91,42046,11.94,72064.8,-6.81,-41.93,-39.15,0,*5A
1518361455.12,42047,11.94,72066.0,-6.85,-41.61,-38.85,0,*5A
1518361456.36,42048,11.94,72068.8,-6.85,-41.55,-38.85,0,*52
1518361457.61,42049,11.94,72064.5,-6.87,-41.81,-38.97,0,*5B
1518361458.9,42050,11.94,72066.3,-6.87,-41.81,-39.03,0,*5F
1518361460.14,42051,11.94,72066.3,-6.91,-41.87,-39.09,0,*55
1518361461.4,42052,11.88,72064.0,-6.91,-41.81,-38.85,0,*55
1518361462.64,42053,11.94,72066.5,-6.91,-41.61,-38.73,0,*53
1518361463.9,42054,11.88,72064.0,-6.87,-41.41,-38.67,0,*54
1518361465.14,42055,11.94,72066.3,-6.91,-41.61,-38.85,0,*5C
1518361466.42,42056,11.94,72064.0,-6.91,-41.81,-39.03,0,*5E
1518361467.71,42057,11.88,72066.5,-6.93,-41.67,-38.91,0,*5F
1518361468.99,42058,11.94,72066.3,-6.93,-41.67,-38.91,0,*50
1518361470.22,42059,11.88,72064.8,-6.93,-41.49,-38.73,0,*51
1518361471.44,42060,11.94,72068.3,-6.93,-41.49,-38.73,0,*5B
1518361472.7,42061,11.94,72068.8,-6.93,-41.67,-38.97,0,*5C
1518361473.94,42062,11.94,72070.8,-6.95,-41.87,-39.15,0,*5C
1518361475.19,42063,11.94,72068.5,-6.95,-41.93,-39.15,0,*58
1518361476.42,42064,11.94,72068.5,-6.95,-41.73,-38.91,0,*5C
1518361477.69,42065,11.88,72066.3,-6.95,-41.67,-38.79,0,*5E
1518361478.89,42066,11.94,72068.0,-6.99,-41.61,-38.85,0,*54
1518361480.12,42067,11.94,72066.8,-6.99,-41.61,-39.03,0,*5A
1518361481.36,42068,11.88,72066.0,-6.99,-41.41,-38.79,0,*5B
1518361482.61,42069,11.94,72068.3,-6.99,-41.55,-38.79,0,*5F
1518361483.84,42070,11.88,72066.3,-6.99,-41.73,-39.03,0,*5F
1518361485.09,42071,11.88,72064.5,-7.01,-41.73,-39.23,0,*5C
1518361486.29,42072,11.94,72066.8,-6.99,-41.73,-38.97,0,*51
1518361487.52,42073,11.94,72068.3,-7.01,-41.73,-38.97,0,*50
1518361488.77,42074,11.94,72066.8,-7.01,-41.73,-39.03,0,*5B
1518361490.05,42075,11.94,72066.8,-7.01,-41.93,-39.23,0,*56
1518361491.3,42076,11.94,72068.5,-7.03,-41.67,-39.03,0,*5E
1518361492.51,42077,11.94,72068.3,-7.03,-41.61,-38.85,0,*56
1518361493.71,42078,11.94,72068.3,-7.03,-41.41,-38.73,0,*52
1518361494.96,42079,11.88,72066.3,-7.05,-41.29,-38.67,0,*5E
1518361496.22,42080,11.88,72068.0,-7.03,-41.23,-38.49,0,*58
1518361497.46,42081,11.94,72070.8,-7.05,-41.11,-38.55,0,*53
1518361498.67,42082,11.94,72070.5,-7.03,-41.41,-38.55,0,*53
1518361499.87,42083,11.94,72070.8,-7.03,-41.29,-38.55,0,*5C
1518361501.13,42084,11.88,72068.3,-7.05,-41.41,-38.67,0,*52
1518361502.35,42085,11.94,72072.8,-7.05,-41.29,-38.73,0,*58
1518361503.59,42086,11.88,72070.5,-7.03,-41.23,-38.55,0,*53
1518361504.81,42087,11.88,72068.5,-7.05,-41.29,-38.73,0,*5A
1518361506.03,42088,11.94,72070.5,-7.05,-41.49,-38.73,0,*53
1518361507.25,42089,11.88,72070.8,-7.05,-41.49,-38.73,0,*52
1518361508.51,42090,11.88,72068.5,-7.07,-41.55,-38.79,0,*5F
1518361509.74,42091,11.88,72070.3,-7.07,-41.67,-38.97,0,*5F
1518361511.0,42092,11.94,72072.0,-7.07,-41.67,-38.91,0,*5A
1518361512.23,42093,11.94,72074.3,-7.07,-41.73,-39.15,0,*53
1518361513.47,42094,11.94,72072.3,-7.07,-41.67,-39.09,0,*5C
1518361514.72,42095,11.94,72074.8,-7.09,-41.67,-38.97,0,*55
1518361515.98,42096,11.88,72070.8,-7.07,-41.93,-39.29,0,*57
1518361517.21,42097,11.88,72068.3,-7.09,-41.73,-39.09,0,*54
1518361518.44,42098,11.88,72068.3,-7.07,-41.87,-39.15,0,*53
1518361519.7,42099,11.94,72074.0,-7.09,-41.87,-39.15,0,*5C
1518361520.95,42100,11.94,72072.3,-7.11,-41.93,-39.23,0,*54
1518361522.21,42101,11.94,72072.0,-7.11,-41.93,-39.15,0,*50
1518361523.48,42102,11.88,72068.0,-7.13,-41.93,-39.41,0,*50
1518361524.76,42103,11.94,72070.8,-7.13,-41.81,-39.15,0,*53
1518361526.04,42104,11.88,72064.3,-7.13,-41.81,-39.15,0,*54
1518361527.24,42105,11.88,72066.8,-7.15,-41.99,-39.47,0,*5D
1518361528.45,42106,11.88,72066.0,-7.15,-42.37,-39.65,0,*59
1518361529.71,42107,11.88,72064.8,-7.17,-42.37,-40.09,0,*5E
1518361530.94,42108,11.94,72066.8,-7.15,-42.37,-39.79,0,*5A
1518361532.2,42109,11.94,72064.0,-7.17,-42.37,-39.79,0,*59
1518361533.49,42110,11.88,72066.5,-7.17,-42.45,-39.79,0,*54
1518361534.73,42111,11.94,72062.8,-7.21,-42.25,-39.65,0,*5B
1518361535.98,42112,11.94,72064.3,-7.23,-41.93,-39.29,0,*5C
1518361537.21,42113,11.94,72062.5,-7.23,-41.87,-39.15,0,*57
1518361538.47,42114,11.88,72058.8,-7.23,-41.93,-39.15,0,*55
1518361539.68,42115,11.88,72058.3,-7.23,-41.87,-39.09,0,*5C
1518361540.92,42116,11.94,72062.3,-7.23,-41.87,-39.15,0,*52
1518361542.13,42117,11.88,72056.5,-7.23,-41.73,-39.09,0,*55
1518361543.39,42118,11.88,72056.0,-7.25,-41.81,-39.15,0,*5C
1518361544.66,42119,11.94,72060.3,-7.27,-41.81,-39.03,0,*58
1518361545.92,42120,11.94,72060.0,-7.27,-41.73,-39.03,0,*5F
1518361547.17,42121,11.94,72060.8,-7.25,-41.81,-39.23,0,*53
1518361548.41,42122,11.94,72060.0,-7.25,-41.61,-39.15,0,*5B
1518361549.66,42123,11.94,72062.5,-7.27,-41.55,-38.97,0,*54
1518361550.92,42124,11.88,72056.0,-7.27,-41.55,-38.97,0,*53
1518361552.17,42125,11.88,72056.5,-7.27,-41.61,-39.03,0,*59
1518361553.46,42126,11.94,72060.3,-7.27,-41.81,-39.15,0,*53
1518361554.69,42127,11.94,72060.8,-7.29,-41.67,-39.09,0,*59
1518361555.94,42128,11.88,72058.3,-7.29,-41.81,-39.23,0,*56
1518361557.19,42129,11.88,72058.3,-7.29,-41.67,-39.23,0,*5F
1518361558.44,42130,11.94,72064.0,-7.29,-41.67,-39.03,0,*55
1518361559.7,42131,11.88,72062.8,-7.31,-41.87,-39.15,0,*54
1518361560.95,42132,11.94,72064.5,-7.31,-42.13,-39.53,0,*5B
1518361562.21,42133,11.88,72060.0,-7.31,-41.87,-39.29,0,*59
1518361563.49,42134,11.94,72066.5,-7.31,-41.93,-39.15,0,*54
1518361564.75,42135,11.88,72064.0,-7.31,-41.87,-39.29,0,*5F
1518361565.98,42136,11.94,72066.8,-7.33,-41.73,-39.29,0,*55
1518361567.24,42137,11.88,72062.5,-7.33,-41.67,-39.15,0,*5E
1518361568.48,42138,11.88,72062.3,-7.33,-41.55,-39.09,0,*5D
1518361569.76,42139,11.88,72064.3,-7.35,-41.55,-39.03,0,*50
1518361571.02,42140,11.88,72060.0,-7.35,-41.73,-39.15,0,*5D
1518361572.3,42141,11.88,72064.0,-7.35,-41.93,-39.23,0,*57
1518361573.56,42142,11.88,72064.8,-7.35,-41.61,-39.03,0,*5B
1518361574.79,42143,11.94,72064.8,-7.35,-41.49,-38.97,0,*5C
1518361576.05,42144,11.94,72066.3,-7.35,-41.61,-39.03,0,*5D
1518361577.31,42145,11.88,72066.8,-7.35,-41.55,-38.97,0,*57
1518361578.54,42146,11.94,72068.3,-7.37,-41.61,-39.15,0,*5A
1518361579.77,42147,11.94,72066.8,-7.37,-41.61,-39.23,0,*5E
1518361581.0,42148,11.94,72070.3,-7.37,-41.73,-39.23,0,*52
1518361582.23,42149,11.94,72070.5,-7.39,-41.61,-38.97,0,*50
1518361583.5,42150,11.94,72068.0,-7.39,-41.35,-38.97,0,*59
1518361584.78,42151,11.88,72070.5,-7.39,-41.35,-38.91,0,*5E
1518361585.98,42152,11.94,72070.3,-7.37,-41.11,-38.73,0,*59
1518361587.24,42153,11.88,72070.0,-7.39,-41.35,-38.97,0,*5A
1518361588.5,42154,11.94,72072.5,-7.37,-41.55,-39.03,0,*59
1518361589.78,42155,11.94,72072.8,-7.39,-41.55,-39.15,0,*51
1518361591.04,42156,11.94,72068.8,-7.39,-41.73,-39.15,0,*56
1518361592.3,42157,11.88,72066.8,-7.39,-41.81,-39.35,0,*58
1518361593.55,42158,11.94,72068.8,-7.39,-41.81,-39.35,0,*57
1518361594.81,42159,11.94,72068.0,-7.45,-41.67,-39.29,0,*58
1518361596.1,42160,11.94,72070.3,-7.43,-41.67,-39.15,0,*5B
1518361597.31,42161,11.88,72070.5,-7.45,-41.49,-39.09,0,*5D
1518361598.52,42162,11.94,72070.8,-7.45,-41.41,-39.09,0,*56
1518361599.74,42163,11.94,72070.5,-7.45,-41.29,-39.03,0,*53
1518361600.97,42164,11.94,72068.5,-7.45,-41.49,-39.15,0,*55
1518361602.19,42165,11.88,72068.8,-7.45,-41.41,-39.09,0,*51
1518361603.39,42166,11.88,72070.0,-7.45,-41.87,-39.35,0,*57
1518361604.62,42167,11.88,72066.5,-7.47,-41.87,-39.35,0,*54
1518361605.88,42168,11.94,72070.8,-7.47,-41.61,-39.29,0,*5E
1518361607.12,42169,11.94,72070.0,-7.49,-41.67,-39.35,0,*5A
1518361608.35,42170,11.94,72070.3,-7.47,-41.73,-39.35,0,*59
1518361609.6,42171,11.94,72070.8,-7.49,-41.55,-39.23,0,*55
1518361610.87,42172,11.88,72066.3,-7.47,-41.61,-39.29,0,*55
1518361612.12,42173,11.94,72068.8,-7.47,-41.67,-39.35,0,*5F
1518361613.38,42174,11.88,72066.5,-7.47,-41.73,-39.29,0,*50
1518361614.64,42175,11.94,72072.3,-7.47,-41.73,-39.29,0,*51
1518361615.87,42176,11.88,72068.0,-7.49,-41.73,-39.41,0,*52
1518361617.13,42177,11.88,72070.3,-7.53,-41.81,-39.41,0,*55
1518361618.39,42178,11.88,72070.3,-7.51,-41.73,-39.41,0,*55
1518361619.65,42179,11.88,72068.3,-7.51,-41.99,-39.59,0,*59
1518361620.86,42180,11.94,72068.8,-7.53,-41.99,-39.65,0,*52
1518361622.1,42181,11.94,72070.8,-7.53,-42.19,-39.85,0,*56
1518361623.36,42182,11.94,72068.0,-7.53,-42.05,-39.59,0,*59
1518361624.59,42183,11.94,72070.3,-7.53,-41.73,-39.41,0,*53
1518361625.87,42184,11.88,72064.5,-7.55,-41.81,-39.41,0,*5F
1518361627.1,42185,11.88,72068.5,-7.55,-41.87,-39.47,0,*5E
1518361628.38,42186,11.94,72070.8,-7.55,-41.81,-39.53,0,*5E
1518361629.63,42187,11.94,72070.0,-7.57,-41.81,-39.35,0,*5D
1518361630.89,42188,11.94,72072.0,-7.55,-41.73,-39.29,0,*50
1518361632.12,42189,11.88,72064.0,-7.55,-41.87,-39.47,0,*52
1518361633.4,42190,11.94,72070.3,-7.57,-41.93,-39.53,0,*58
1518361634.67,42191,11.88,72068.8,-7.57,-41.93,-39.53,0,*59
1518361635.92,42192,11.88,72066.5,-7.57,-41.81,-39.35,0,*59
1518361637.17,42193,11.88,72066.3,-7.57,-41.81,-39.35,0,*58
1518361638.43,42194,11.88,72068.8,-7.57,-41.61,-39.29,0,*5C
1518361639.68,42195,11.94,72070.3,-7.57,-41.87,-39.41,0,*5B
1518361640.9,42196,11.88,72066.3,-7.61,-41.73,-39.35,0,*55
1518361642.13,42197,11.94,72068.0,-7.59,-41.67,-39.35,0,*5A
1518361643.34,42198,11.94,72070.8,-7.59,-41.87,-39.47,0,*5E
1518361644.59,42199,11.88,72066.3,-7.59,-41.67,-39.29,0,*59
1518361645.85,42200,11.88,72066.8,-7.61,-41.87,-39.59,0,*58
1518361647.11,42201,11.88,72066.0,-7.59,-41.93,-39.53,0,*5D
1518361648.36,42202,11.88,72066.3,-7.61,-41.99,-39.59,0,*55
1518361649.65,42203,11.88,72066.0,-7.61,-42.19,-39.79,0,*5D
1518361650.93,42204,11.94,72070.3,-7.61,-41.93,-39.59,0,*59
1518361652.21,42205,11.88,72068.5,-7.61,-41.93,-39.59,0,*58
1518361653.49,42206,11.88,72066.5,-7.61,-41.93,-39.59,0,*5B
1518361654.76,42207,11.88,72064.8,-7.65,-41.93,-39.53,0,*54
1518361656.02,42208,11.94,72070.3,-7.65,-41.87,-39.53,0,*5E
1518361657.23,42209,11.94,72070.8,-7.67,-41.99,-39.65,0,*57
1518361658.46,42210,11.88,72068.0,-7.67,-41.99,-39.79,0,*52
1518361659.73,42211,11.88,72066.0,-7.67,-42.19,-39.79,0,*58
1518361661.01,42212,11.88,72066.8,-7.69,-42.19,-39.79,0,*55
1518361662.22,42213,11.94,72068.0,-7.71,-42.25,-39.91,0,*54
1518361663.48,42214,11.88,72064.3,-7.69,-42.05,-39.85,0,*5D
1518361664.68,42215,11.88,72064.8,-7.71,-42.13,-39.85,0,*52
1518361665.91,42216,11.94,72070.5,-7.71,-41.81,-39.47,0,*57
1518361667.16,42217,11.88,72066.3,-7.69,-41.81,-39.47,0,*5F
1518361668.38,42218,11.88,72064.8,-7.71,-41.81,-39.47,0,*59
1518361669.61,42219,11.88,72066.3,-7.71,-41.81,-39.47,0,*58
1518361670.81,42220,11.94,72068.3,-7.71,-41.61,-39.47,0,*5C
1518361672.03,42221,11.88,72066.8,-7.71,-41.67,-39.47,0,*5B
1518361673.28,42222,11.88,72066.3,-7.69,-41.81,-39.47,0,*59
1518361674.51,42223,11.94,72070.3,-7.71,-41.87,-39.53,0,*52
1518361675.76,42224,11.94,72068.3,-7.71,-41.81,-39.53,0,*53
1518361677.04,42225,11.94,72070.3,-7.73,-41.81,-39.53,0,*50
1518361678.32,42226,11.88,72064.0,-7.73,-41.81,-39.53,0,*53
1518361679.6,42227,11.94,72070.8,-7.73,-41.81,-39.53,0,*52
1518361680.88,42228,11.88,72066.8,-7.73,-41.67,-39.53,0,*55
1518361682.14,42229,11.88,72064.0,-7.75,-41.93,-39.71,0,*59
1518361683.37,42230,11.88,72066.8,-7.75,-41.73,-39.53,0,*5F
1518361684.64,42231,11.88,72066.8,-7.73,-41.81,-39.53,0,*55
1518361685.84,42232,11.88,72066.3,-7.75,-41.73,-39.47,0,*58
1518361687.07,42233,11.88,72068.3,-7.75,-41.67,-39.47,0,*5C
1518361688.3,42234,11.88,72068.0,-7.75,-41.67,-39.35,0,*5E
1518361689.53,42235,11.88,72070.0,-7.75,-41.49,-39.29,0,*5E
1518361690.79,42236,11.94,72068.3,-7.75,-41.55,-39.29,0,*50
1518361692.01,42237,11.88,72068.5,-7.77,-41.49,-39.35,0,*53
1518361693.26,42238,11.88,72066.8,-7.77,-41.55,-39.35,0,*51
1518361694.49,42239,11.88,72066.8,-7.79,-41.61,-39.53,0,*59
1518361695.75,42240,11.88,72066.5,-7.77,-41.73,-39.59,0,*50
1518361696.98,42241,11.88,72070.0,-7.79,-41.73,-39.59,0,*5F
1518361698.21,42242,11.88,72068.5,-7.79,-41.73,-39.59,0,*5C
1518361699.47,42243,11.88,72066.5,-7.77,-41.73,-39.59,0,*53